sat.trackr.live / text

‹ back to catalog

GONETS-M 18

NORAD 46487 · 2020-068B

PAYLOAD ACTIVE UNKNOWN

§ Identity

Operator
Country
CIS
Launch date
2020-09-28
Launch site
PLMSC
Launch vehicle
Mass (kg)
RCS (m²)

External: N2YO · Heavens-Above · Gunter

§ Orbital elements

Epoch: 2026-05-25T03:36:58.749408Z

Period
115.86 min
Inclination
82.4958°
Eccentricity
0.0020783
Mean motion
12.42871390 rev/d
Perigee alt
1,478.1 km
Apogee alt
1,510.8 km
Semi-major
7,872.6 km
B*
-6.5631e-4
RAAN
0.9624°
Arg perigee
81.8043°
Mean anomaly
278.5392°
Rev number
25,628

§ Raw data

GONETS-M 181 46487U 20068B   26145.15067997 -.00000081  00000+0 -65631-3 0  99912 46487  82.4958   0.9624 0020783  81.8043 278.5392 12.42871390256288

JSON: /api/v1/satellites/46487 · /tle

For live sub-satellite position, see the globe view (requires WebGL).

§ Visibility from observer

Set your observer location to see the next 7 days of passes ≥ 10°. The values pass through the URL so the page stays shareable.

No JS? Fill the form by hand. The geolocation button needs JavaScript.

§ Radio — SatNOGS DB

ModeDescriptionDownlinkUplink
FM UHF Unknown 387.175 MHz
FM UHF Unknown 387.774 MHz

2 transmitters · refreshed weekly from db.satnogs.org